CW9197 Juva FI current weather conditions

sailwx.info

Wind from 234 at 1 knots gusting 5

Air temperature 18.9° C
Dewpoint 8.8° C

Last reported at 2015-Aug-04 12:50 UTC.
Time now 2015-Aug-04 13:56 UTC

Location: N 61°53' E 027°53'.
View on Google Maps.

See reports from other nearby stations

  
Tides and Currents Weather Stations Pressure Air Temp Water Temp Dewpoint Dewpoint Depression Visibility Wind Speed Wind Dir Waves Ship Positions
date/time (UTC)wind fromknots sea level pressurealtimeterstation pressurevisibilityair tempwater tempwave heightnotes
2015-Aug-04 12:50 234 1 gusting 5 18.9
2015-Aug-04 12:40 229 2 gusting 7 18.9
2015-Aug-04 12:30 229 1 gusting 4 18.9
2015-Aug-04 12:20 279 3 gusting 7 18.9
2015-Aug-04 12:10 265 1 gusting 6 18.9
2015-Aug-04 12:00 263 1 gusting 6 18.9
2015-Aug-04 11:50 240 1 gusting 4 18.9
2015-Aug-04 11:40 232 1 gusting 4 18.9
2015-Aug-04 11:30 226 1 gusting 6 18.9
2015-Aug-04 11:20 220 1 gusting 3 18.9
2015-Aug-04 11:10 229 2 gusting 5 18.9
2015-Aug-04 11:00 237 1 gusting 5 18.9
2015-Aug-04 10:50 243 1 gusting 5 19.4
2015-Aug-04 10:40 267 3 gusting 6 20.0
2015-Aug-04 10:30 222 2 gusting 6 19.4
2015-Aug-04 10:20 224 1 gusting 5 19.4
2015-Aug-04 10:10 249 1 gusting 5 18.9
2015-Aug-04 10:00 225 2 gusting 5 18.9
2015-Aug-04 09:50 248 1 gusting 5 18.3
2015-Aug-04 09:40 246 2 gusting 5 17.8
2015-Aug-04 09:30 260 1 gusting 6 17.2
2015-Aug-04 09:20 314 0 gusting 2 17.8
2015-Aug-04 09:10 294 2 gusting 6 18.3
2015-Aug-04 09:00 275 1 gusting 5 18.3
2015-Aug-04 08:50 252 1 gusting 5 18.9
2015-Aug-04 08:40 251 1 gusting 4 18.9
2015-Aug-04 08:30 243 1 gusting 5 19.4
2015-Aug-04 08:20 239 1 gusting 6 19.4
2015-Aug-04 08:10 247 1 gusting 4 18.9
2015-Aug-04 08:00 281 1 gusting 4 18.9
2015-Aug-04 07:50 233 1 gusting 5 18.9
2015-Aug-04 07:40 247 1 gusting 3 17.8
2015-Aug-04 07:30 248 0 gusting 3 18.3
2015-Aug-04 07:20 246 0 gusting 4 18.3
2015-Aug-04 07:10 220 0 gusting 2 18.9
2015-Aug-04 07:00 302 2 gusting 6 18.9
2015-Aug-04 06:50 244 1 gusting 4 18.9
2015-Aug-04 06:40 238 1 gusting 5 18.3
2015-Aug-04 06:30 239 1 gusting 5 18.3
2015-Aug-04 06:20 245 1 gusting 3 17.8
2015-Aug-04 06:10 261 1 gusting 4 16.7
2015-Aug-04 06:00 243 1 gusting 4 16.1
2015-Aug-04 05:50 272 1 gusting 4 15.0
2015-Aug-04 05:40 237 0 gusting 4 15.0
2015-Aug-04 05:30 260 1 gusting 6 15.0
2015-Aug-04 05:20 268 0 gusting 2 15.0
2015-Aug-04 05:10 239 0 gusting 2 13.9
2015-Aug-04 05:00 241 0 gusting 3 13.3
2015-Aug-04 04:50 266 2 gusting 6 13.3
2015-Aug-04 04:40 271 1 gusting 7 13.3
2015-Aug-04 04:30 227 0 gusting 2 12.8
2015-Aug-04 04:20 251 0 gusting 3 12.8
2015-Aug-04 04:10 249 0 gusting 2 12.8
2015-Aug-04 04:00 254 12.2
2015-Aug-04 03:50 256 12.2
2015-Aug-04 03:40 263 0 gusting 3 12.2
2015-Aug-04 03:30 294 0 gusting 2 12.2
2015-Aug-04 03:20 281 11.7
2015-Aug-04 03:10 269 0 gusting 2 11.7
2015-Aug-04 03:00 279 11.7
2015-Aug-04 02:50 267 0 gusting 2 11.7
2015-Aug-04 02:40 246 11.7
2015-Aug-04 02:30 266 0 gusting 4 11.7
2015-Aug-04 02:20 242 11.7
2015-Aug-04 02:10 275 11.7
2015-Aug-04 02:00 285 0 gusting 2 11.7
2015-Aug-04 01:50 299 11.7
2015-Aug-04 01:40 279 11.7
2015-Aug-04 01:30 272 0 gusting 2 11.7
2015-Aug-04 01:20 275 0 gusting 3 11.7
2015-Aug-04 01:10 258 11.7
2015-Aug-04 01:00 250 11.7
2015-Aug-04 00:50 257 0 gusting 3 11.7
2015-Aug-04 00:40 256 11.7
2015-Aug-04 00:30 231 11.7
2015-Aug-04 00:20 236 11.7
2015-Aug-04 00:10 215 11.7
2015-Aug-04 00:00 214 11.7
2015-Aug-03 23:50 217 11.7
2015-Aug-03 23:40 208 11.7
2015-Aug-03 23:30 227 11.7
2015-Aug-03 23:20 264 0 gusting 2 11.7
2015-Aug-03 23:10 262 11.7
2015-Aug-03 23:00 242 11.7
2015-Aug-03 22:50 256 11.7
2015-Aug-03 22:40 260 11.7
2015-Aug-03 22:30 237 0 gusting 2 11.7
2015-Aug-03 22:20 256 0 gusting 3 11.7
2015-Aug-03 22:10 275 0 gusting 2 11.7
2015-Aug-03 22:00 247 11.7
2015-Aug-03 21:50 252 0 gusting 2 11.7
2015-Aug-03 21:40 238 0 gusting 3 11.7
2015-Aug-03 21:30 238 11.7
2015-Aug-03 21:20 229 0 gusting 1 11.7
2015-Aug-03 21:10 242 0 gusting 2 11.7
2015-Aug-03 21:00 267 0 gusting 3 11.7
2015-Aug-03 20:50 223 0 gusting 2 11.7
2015-Aug-03 20:40 226 0 gusting 1 11.7
2015-Aug-03 20:30 202 12.2
2015-Aug-03 20:20 220 12.2
2015-Aug-03 20:10 228 0 gusting 3 12.2
2015-Aug-03 20:00 213 12.2
2015-Aug-03 19:50 215 12.2
2015-Aug-03 19:40 216 0 gusting 1 12.2
2015-Aug-03 19:30 216 0 gusting 1 12.8
2015-Aug-03 19:20 214 12.8
2015-Aug-03 19:10 194 13.3
2015-Aug-03 19:00 192 13.3
2015-Aug-03 18:50 219 13.3
2015-Aug-03 18:40 210 13.9
2015-Aug-03 18:30 222 0 gusting 2 13.9
2015-Aug-03 18:20 226 0 gusting 2 13.9
2015-Aug-03 18:10 218 13.9
2015-Aug-03 18:00 217 0 gusting 2 14.4
2015-Aug-03 17:50 220 0 gusting 2 14.4
2015-Aug-03 17:40 221 1 gusting 2 14.4
2015-Aug-03 17:30 217 0 gusting 2 14.4
2015-Aug-03 17:20 221 0 gusting 3 15.0
2015-Aug-03 17:10 213 0 gusting 2 15.6
2015-Aug-03 17:00 321 1 gusting 7 16.1
2015-Aug-03 16:50 257 4 gusting 16 16.7
2015-Aug-03 16:40 228 0 gusting 2 16.7
2015-Aug-03 16:30 230 0 gusting 3 16.7
2015-Aug-03 16:20 221 1 gusting 5 16.7
2015-Aug-03 16:10 231 0 gusting 2 17.2
2015-Aug-03 16:00 224 0 gusting 2 17.2
2015-Aug-03 15:50 241 0 gusting 2 17.2
2015-Aug-03 15:40 230 1 gusting 4 17.2
2015-Aug-03 15:30 233 3 gusting 6 17.8
2015-Aug-03 15:20 236 1 gusting 8 17.8
2015-Aug-03 15:10 245 0 gusting 1 17.8
2015-Aug-03 15:00 229 1 gusting 4 17.8
2015-Aug-03 14:50 251 1 gusting 7 17.8
2015-Aug-03 14:40 236 1 gusting 5 17.8
2015-Aug-03 14:30 260 2 gusting 7 17.8
2015-Aug-03 14:20 249 1 gusting 6 17.8
2015-Aug-03 14:10 269 2 gusting 6 18.3
2015-Aug-03 14:00 240 1 gusting 5 18.3
2015-Aug-03 13:50 230 2 gusting 6 18.3
2015-Aug-03 13:40 241 1 gusting 4 18.3
2015-Aug-03 13:30 231 1 gusting 3 18.3
2015-Aug-03 13:20 229 2 gusting 6 18.3
2015-Aug-03 13:10 262 3 gusting 7 18.3
2015-Aug-03 13:00 233 3 gusting 9 18.3
2015-Aug-03 12:50 252 1 gusting 5 18.3
2015-Aug-03 12:40 224 2 gusting 5 18.9
2015-Aug-03 12:30 236 2 gusting 6 18.9
2015-Aug-03 12:20 245 2 gusting 6 18.9
2015-Aug-03 12:10 224 3 gusting 7 18.9
2015-Aug-03 12:00 227 3 gusting 7 18.3
2015-Aug-03 11:50 222 4 gusting 8 18.3
2015-Aug-03 11:40 231 2 gusting 6 18.3
2015-Aug-03 11:30 255 2 gusting 6 18.3
2015-Aug-03 11:20 225 2 gusting 5 17.8
2015-Aug-03 11:10 226 3 gusting 7 17.8
2015-Aug-03 11:00 227 3 gusting 6 17.8
2015-Aug-03 10:50 223 3 gusting 7 18.3
2015-Aug-03 10:40 227 2 gusting 6 17.8
2015-Aug-03 10:30 232 2 gusting 7 18.3
2015-Aug-03 10:20 227 2 gusting 6 17.8
2015-Aug-03 10:10 227 3 gusting 6 17.8
2015-Aug-03 10:00 220 2 gusting 6 17.2
2015-Aug-03 09:50 233 2 gusting 5 17.2
2015-Aug-03 09:40 223 3 gusting 6 17.2
2015-Aug-03 09:30 214 1 gusting 4 17.2
2015-Aug-03 09:20 222 3 gusting 6 16.7
2015-Aug-03 09:10 229 2 gusting 5 16.7
2015-Aug-03 09:00 232 3 gusting 6 16.7
2015-Aug-03 08:50 229 2 gusting 7 16.1
2015-Aug-03 08:40 225 2 gusting 5 16.1
2015-Aug-03 08:30 219 2 gusting 6 16.1
2015-Aug-03 08:20 222 2 gusting 6 15.0
2015-Aug-03 08:10 229 1 gusting 4 15.0
2015-Aug-03 08:00 222 3 gusting 6 14.4
2015-Aug-03 07:50 225 1 gusting 3 13.9
2015-Aug-03 07:40 225 2 gusting 5 13.3
2015-Aug-03 07:30 225 2 gusting 5 13.3
2015-Aug-03 07:20 222 2 gusting 5 12.8
2015-Aug-03 07:10 220 3 gusting 6 12.2
2015-Aug-03 07:00 218 1 gusting 5 12.2
2015-Aug-03 06:50 223 1 gusting 4 12.2
2015-Aug-03 06:40 229 1 gusting 3 12.2
2015-Aug-03 06:30 220 2 gusting 5 11.7
2015-Aug-03 06:20 222 1 gusting 3 11.7
2015-Aug-03 06:10 220 2 gusting 6 11.7
2015-Aug-03 06:00 223 1 gusting 5 11.7
2015-Aug-03 05:50 222 2 gusting 5 12.2
2015-Aug-03 05:40 224 1 gusting 3 12.2
2015-Aug-03 05:30 228 1 gusting 3 12.2
2015-Aug-03 05:20 225 1 gusting 4 12.2
2015-Aug-03 05:10 222 1 gusting 4 11.7
2015-Aug-03 05:00 232 1 gusting 4 10.6
2015-Aug-03 04:50 224 1 gusting 3 10.6
2015-Aug-03 04:40 226 0 gusting 3 10.0
2015-Aug-03 04:30 225 0 gusting 2 10.0
2015-Aug-03 04:20 218 0 gusting 3 10.0
2015-Aug-03 04:10 220 0 gusting 1 9.4
2015-Aug-03 04:00 223 0 gusting 2 9.4
2015-Aug-03 03:50 242 0 gusting 2 9.4
2015-Aug-03 03:40 226 0 gusting 1 9.4
2015-Aug-03 03:30 216 0 gusting 2 9.4
2015-Aug-03 03:20 215 0 gusting 2 9.4
2015-Aug-03 03:10 221 1 gusting 3 9.4
2015-Aug-03 03:00 238 0 gusting 9 9.4
2015-Aug-03 02:50 276 9.4
2015-Aug-03 02:40 313 9.4
2015-Aug-03 02:30 297 9.4
2015-Aug-03 02:20 234 0 gusting 4 9.4
2015-Aug-03 02:10 223 1 gusting 6 9.4
2015-Aug-03 02:00 221 1 gusting 3 9.4
2015-Aug-03 01:50 216 0 gusting 3 9.4
2015-Aug-03 01:40 221 1 gusting 5 9.4
2015-Aug-03 01:30 216 1 gusting 3 9.4
2015-Aug-03 01:20 218 2 gusting 5 9.4
2015-Aug-03 01:10 218 2 gusting 5 9.4
2015-Aug-03 01:00 223 2 gusting 5 9.4
2015-Aug-03 00:50 218 1 gusting 3 9.4
2015-Aug-03 00:40 217 2 gusting 4 9.4
2015-Aug-03 00:30 223 1 gusting 3 9.4
2015-Aug-03 00:20 217 1 gusting 4 9.4
2015-Aug-03 00:10 231 1 gusting 3 9.4
2015-Aug-03 00:00 259 3 gusting 9 9.4
2015-Aug-02 23:50 286 3 gusting 10 10.0
2015-Aug-02 23:40 283 1 gusting 3 10.0
2015-Aug-02 23:30 277 2 gusting 6 10.0
2015-Aug-02 23:20 264 3 gusting 9 10.0
2015-Aug-02 23:10 251 3 gusting 9 10.0
2015-Aug-02 23:00 247 3 gusting 9 10.6
2015-Aug-02 22:50 233 2 gusting 8 10.6
2015-Aug-02 22:40 233 2 gusting 6 10.6
2015-Aug-02 22:30 232 3 gusting 8 10.6
2015-Aug-02 22:20 231 3 gusting 6 10.6
2015-Aug-02 22:10 218 3 gusting 6 10.6
2015-Aug-02 22:00 218 3 gusting 5 10.6
2015-Aug-02 21:50 222 4 gusting 7 10.6
2015-Aug-02 21:40 218 3 gusting 6 10.0
2015-Aug-02 21:30 227 3 gusting 5 10.6
2015-Aug-02 21:20 224 2 gusting 6 10.6
2015-Aug-02 21:10 224 2 gusting 5 10.6
2015-Aug-02 21:00 227 2 gusting 6 10.6
2015-Aug-02 20:50 222 2 gusting 5 11.1
2015-Aug-02 20:40 230 2 gusting 4 11.1
2015-Aug-02 20:30 226 2 gusting 5 11.1
2015-Aug-02 20:20 226 2 gusting 5 11.1
2015-Aug-02 20:10 227 2 gusting 5 11.7
2015-Aug-02 20:00 225 3 gusting 5 11.7
2015-Aug-02 19:50 222 2 gusting 5 11.7
2015-Aug-02 19:40 224 3 gusting 5 12.2
2015-Aug-02 19:30 229 2 gusting 5 12.2
2015-Aug-02 19:20 230 2 gusting 5 12.2
2015-Aug-02 19:10 231 2 gusting 6 12.8
2015-Aug-02 19:00 226 3 gusting 5 12.8
2015-Aug-02 18:50 226 3 gusting 6 13.3
2015-Aug-02 18:40 225 3 gusting 7 13.3
2015-Aug-02 18:30 228 4 gusting 8 13.9
2015-Aug-02 18:20 228 5 gusting 9 13.9
2015-Aug-02 18:10 221 7 gusting 13 14.4
2015-Aug-02 18:00 222 5 gusting 13 14.4
2015-Aug-02 17:50 223 4 gusting 8 15.0
2015-Aug-02 17:40 224 3 gusting 6 15.0
2015-Aug-02 17:30 219 3 gusting 7 15.0
2015-Aug-02 17:20 220 5 gusting 9 15.0
2015-Aug-02 17:10 219 3 gusting 6 15.6
2015-Aug-02 17:00 222 3 gusting 6 15.6
2015-Aug-02 16:50 223 3 gusting 6 15.6
2015-Aug-02 16:40 221 5 gusting 10 16.1
2015-Aug-02 16:30 225 3 gusting 11 16.1
2015-Aug-02 16:20 226 2 gusting 5 16.1
2015-Aug-02 16:10 221 3 gusting 9 16.7
2015-Aug-02 16:00 224 5 gusting 8 16.7
2015-Aug-02 15:50 223 6 gusting 12 16.7
2015-Aug-02 15:40 222 4 gusting 6 16.7
2015-Aug-02 15:30 229 4 gusting 9 16.7
2015-Aug-02 15:20 227 4 gusting 8 16.7
2015-Aug-02 15:10 226 5 gusting 9 16.7
2015-Aug-02 15:00 223 6 gusting 13 16.7
2015-Aug-02 14:50 225 6 gusting 10 17.2
2015-Aug-02 14:40 223 7 gusting 13 17.2
2015-Aug-02 14:30 223 5 gusting 8 17.8
2015-Aug-02 14:20 221 6 gusting 12 17.8
2015-Aug-02 14:10 221 6 gusting 11 17.8
2015-Aug-02 14:00 221 6 gusting 13 18.3
2015-Aug-02 13:50 221 6 gusting 11 18.9
2015-Aug-02 13:40 225 5 gusting 11 18.3
2015-Aug-02 13:30 222 5 gusting 9 18.9
2015-Aug-02 13:20 231 4 gusting 11 18.9
2015-Aug-02 13:10 224 6 gusting 14 18.3
2015-Aug-02 13:00 225 6 gusting 14 18.3